When you browse on this site, cookies collect data to enhance your experience and personalize the content and advertising you see.
Visit our Privacy Policy to learn more. By continuing to use the site, you agree to this use of cookies and data.

Hourly Weather Cvetki

Today, 2 July, Thursday

Time Temperature Precipitation Wind Pressure Humidity
00:00 +14°C° 0 mm 2 mps 738 mmHg 96%
01:00 +13°C° 0 mm 2 mps 738 mmHg 96%
02:00 +13°C° 0 mm 2 mps 738 mmHg 98%
03:00 +14°C° 0 mm 2 mps 738 mmHg 97%
04:00 +14°C° 0 mm 2 mps 738 mmHg 96%
05:00 +14°C° 0 mm 2 mps 738 mmHg 95%
06:00 +16°C° 0 mm 2 mps 738 mmHg 89%
07:00 +17°C° 0 mm 2 mps 739 mmHg 82%
08:00 +19°C° 0 mm 2 mps 739 mmHg 75%
09:00 +19°C° 0.3 mm 2 mps 738 mmHg 77%
10:00 +20°C° 0.3 mm 3 mps 738 mmHg 78%
11:00 +20°C° 0.3 mm 3 mps 738 mmHg 79%
12:00 +20°C° 0.8 mm 3 mps 738 mmHg 84%
13:00 +19°C° 0.8 mm 3 mps 738 mmHg 88%
14:00 +19°C° 0.8 mm 3 mps 738 mmHg 92%
15:00 +20°C° 0.1 mm 2 mps 738 mmHg 87%
16:00 +20°C° 0.1 mm 2 mps 738 mmHg 81%
17:00 +22°C° 0.1 mm 1 mps 738 mmHg 75%
18:00 +21°C° 0 mm 1 mps 738 mmHg 82%
19:00 +20°C° 0 mm 1 mps 738 mmHg 88%
20:00 +19°C° 0 mm 1 mps 738 mmHg 94%
21:00 +19°C° 0 mm 1 mps 738 mmHg 95%
22:00 +18°C° 0 mm 1 mps 738 mmHg 96%
23:00 +18°C° 0 mm 1 mps 738 mmHg 97%

Tomorrow, 3 July, Friday

Time Temperature Precipitation Wind Pressure Humidity
00:00 +18°C° 0 mm 1 mps 738 mmHg 97%
01:00 +16°C° 0 mm 1 mps 738 mmHg 98%
02:00 +16°C° 0 mm 2 mps 739 mmHg 98%
03:00 +16°C° 0 mm 2 mps 739 mmHg 97%
04:00 +16°C° 0 mm 2 mps 739 mmHg 97%
05:00 +16°C° 0 mm 2 mps 739 mmHg 97%
06:00 +17°C° 0 mm 2 mps 739 mmHg 89%
07:00 +18°C° 0 mm 2 mps 740 mmHg 82%
08:00 +19°C° 0 mm 2 mps 740 mmHg 74%
09:00 +21°C° 0 mm 2 mps 741 mmHg 66%
10:00 +23°C° 0 mm 2 mps 741 mmHg 57%
11:00 +25°C° 0 mm 2 mps 741 mmHg 48%
12:00 +25°C° 0 mm 2 mps 741 mmHg 47%
13:00 +26°C° 0 mm 2 mps 741 mmHg 46%
14:00 +26°C° 0 mm 2 mps 741 mmHg 44%
15:00 +26°C° 0 mm 2 mps 741 mmHg 47%
16:00 +26°C° 0 mm 1 mps 740 mmHg 50%
17:00 +25°C° 0 mm 1 mps 740 mmHg 52%
18:00 +24°C° 0 mm 1 mps 740 mmHg 61%
19:00 +22°C° 0 mm 1 mps 740 mmHg 69%
20:00 +21°C° 0 mm 1 mps 740 mmHg 77%
21:00 +20°C° 0.2 mm 1 mps 740 mmHg 82%
22:00 +19°C° 0.2 mm 1 mps 740 mmHg 87%
23:00 +19°C° 0.2 mm 1 mps 740 mmHg 92%

Day after tomorrow, 4 July, Saturday

Time Temperature Precipitation Wind Pressure Humidity
00:00 +18°C° 0.5 mm 1 mps 740 mmHg 94%
01:00 +18°C° 0.5 mm 1 mps 740 mmHg 95%
02:00 +16°C° 0.5 mm 0 mps 739 mmHg 97%
03:00 +16°C° 0.1 mm 0 mps 739 mmHg 97%
04:00 +16°C° 0.1 mm 0 mps 739 mmHg 96%
05:00 +16°C° 0.1 mm 0 mps 739 mmHg 96%
06:00 +19°C° 0.1 mm 1 mps 740 mmHg 92%
07:00 +20°C° 0.1 mm 1 mps 740 mmHg 88%
08:00 +21°C° 0.1 mm 1 mps 740 mmHg 84%
09:00 +21°C° 0.2 mm 2 mps 740 mmHg 78%
10:00 +23°C° 0.2 mm 2 mps 740 mmHg 71%
11:00 +24°C° 0.2 mm 2 mps 741 mmHg 64%
12:00 +25°C° 0.1 mm 3 mps 741 mmHg 59%
13:00 +26°C° 0.1 mm 3 mps 741 mmHg 55%
14:00 +26°C° 0.1 mm 3 mps 741 mmHg 50%
15:00 +26°C° 0 mm 3 mps 741 mmHg 50%
16:00 +25°C° 0 mm 3 mps 741 mmHg 49%
17:00 +25°C° 0 mm 3 mps 740 mmHg 49%
18:00 +22°C° 0 mm 3 mps 741 mmHg 57%
19:00 +20°C° 0 mm 2 mps 741 mmHg 64%
20:00 +19°C° 0 mm 1 mps 741 mmHg 72%
21:00 +18°C° 0 mm 1 mps 741 mmHg 74%
22:00 +16°C° 0 mm 1 mps 741 mmHg 76%
23:00 +15°C° 0 mm 1 mps 741 mmHg 78%

5 July, Sunday

Time Temperature Precipitation Wind Pressure Humidity
00:00 +15°C° 0 mm 1 mps 742 mmHg 81%
01:00 +15°C° 0 mm 1 mps 742 mmHg 84%
02:00 +15°C° 0 mm 2 mps 742 mmHg 86%
03:00 +15°C° 0 mm 2 mps 742 mmHg 87%
04:00 +15°C° 0 mm 2 mps 742 mmHg 88%
05:00 +16°C° 0 mm 2 mps 742 mmHg 88%
06:00 +17°C° 0 mm 2 mps 742 mmHg 82%
07:00 +19°C° 0 mm 2 mps 742 mmHg 75%
08:00 +21°C° 0 mm 2 mps 742 mmHg 69%
09:00 +22°C° 0 mm 3 mps 742 mmHg 64%
10:00 +24°C° 0 mm 3 mps 742 mmHg 59%
11:00 +25°C° 0 mm 3 mps 741 mmHg 55%
12:00 +26°C° 0.2 mm 3 mps 741 mmHg 57%
13:00 +26°C° 0.2 mm 3 mps 741 mmHg 60%
14:00 +26°C° 0.2 mm 4 mps 740 mmHg 63%
15:00 +25°C° 0.5 mm 3 mps 740 mmHg 68%
16:00 +25°C° 0.5 mm 3 mps 739 mmHg 74%
17:00 +24°C° 0.5 mm 3 mps 739 mmHg 79%
18:00 +22°C° 0.3 mm 3 mps 739 mmHg 83%
19:00 +21°C° 0.3 mm 3 mps 739 mmHg 86%
20:00 +19°C° 0.3 mm 3 mps 738 mmHg 90%
21:00 +19°C° 0.1 mm 3 mps 738 mmHg 92%
22:00 +18°C° 0.1 mm 3 mps 738 mmHg 93%
23:00 +18°C° 0.1 mm 3 mps 738 mmHg 95%

6 July, Monday

Time Temperature Precipitation Wind Pressure Humidity
00:00 +18°C° 0 mm 3 mps 738 mmHg 95%
01:00 +18°C° 0 mm 3 mps 738 mmHg 96%
02:00 +18°C° 0 mm 3 mps 738 mmHg 96%
03:00 +18°C° 0 mm 3 mps 737 mmHg 96%
04:00 +17°C° 0 mm 3 mps 737 mmHg 95%
05:00 +17°C° 0 mm 3 mps 737 mmHg 95%
06:00 +19°C° 0 mm 4 mps 737 mmHg 89%
07:00 +20°C° 0 mm 5 mps 736 mmHg 83%
08:00 +21°C° 0 mm 5 mps 736 mmHg 77%
09:00 +22°C° 0 mm 6 mps 736 mmHg 73%
10:00 +23°C° 0 mm 6 mps 736 mmHg 69%
11:00 +24°C° 0 mm 6 mps 736 mmHg 65%
12:00 +24°C° 0.2 mm 6 mps 736 mmHg 64%
13:00 +24°C° 0.2 mm 7 mps 735 mmHg 64%
14:00 +26°C° 0.2 mm 7 mps 735 mmHg 64%
15:00 +24°C° 0 mm 7 mps 735 mmHg 62%
16:00 +24°C° 0 mm 6 mps 736 mmHg 61%
17:00 +24°C° 0 mm 6 mps 736 mmHg 59%
18:00 +23°C° 0 mm 5 mps 736 mmHg 64%
19:00 +22°C° 0 mm 4 mps 736 mmHg 68%
20:00 +20°C° 0 mm 3 mps 737 mmHg 73%
21:00 +19°C° 0 mm 3 mps 737 mmHg 73%
22:00 +18°C° 0 mm 2 mps 737 mmHg 74%
23:00 +17°C° 0 mm 2 mps 738 mmHg 75%

7 July, Tuesday

Time Temperature Precipitation Wind Pressure Humidity
00:00 +16°C° 0 mm 2 mps 738 mmHg 75%
01:00 +16°C° 0 mm 1 mps 738 mmHg 75%
02:00 +15°C° 0 mm 1 mps 738 mmHg 76%
03:00 +16°C° 0 mm 2 mps 738 mmHg 75%
04:00 +16°C° 0 mm 2 mps 738 mmHg 74%
05:00 +17°C° 0 mm 2 mps 738 mmHg 73%
06:00 +17°C° 0.1 mm 2 mps 738 mmHg 78%
07:00 +17°C° 0.1 mm 2 mps 738 mmHg 82%
08:00 +18°C° 0.1 mm 2 mps 738 mmHg 87%
09:00 +19°C° 0.1 mm 3 mps 739 mmHg 76%
10:00 +21°C° 0.1 mm 3 mps 739 mmHg 65%
11:00 +23°C° 0.1 mm 4 mps 739 mmHg 54%
12:00 +23°C° 0 mm 4 mps 739 mmHg 49%
13:00 +23°C° 0 mm 4 mps 739 mmHg 44%
14:00 +25°C° 0 mm 4 mps 739 mmHg 39%
15:00 +24°C° 0 mm 3 mps 739 mmHg 42%
16:00 +24°C° 0 mm 3 mps 739 mmHg 45%
17:00 +23°C° 0 mm 2 mps 739 mmHg 48%
18:00 +20°C° 0 mm 2 mps 739 mmHg 56%
19:00 +19°C° 0 mm 2 mps 740 mmHg 64%
20:00 +18°C° 0 mm 1 mps 740 mmHg 72%
21:00 +16°C° 0 mm 1 mps 740 mmHg 75%
22:00 +15°C° 0 mm 1 mps 740 mmHg 79%
23:00 +14°C° 0 mm 2 mps 740 mmHg 82%
Show more